Terminal Aerodrome Forecast
Issued by NWS Boise, ID

Home | Current Version | Previous Version | Text Only | Print | Product List | Glossary On
Versions: 1 2 3 4 5 6 7 8 9 10 11 12 13 14 15 16 17 18 19 20 21 22 23 24 25
000
FTUS45 KBOI 060520
TAFBOI
TAF
KBOI 060520Z 0606/0706 30011KT P6SM SCT200
     FM061600 30015G25KT P6SM SCT100
     FM062100 31020G30KT P6SM BKN100 BKN200
     FM070200 31011G17KT P6SM FEW100 SCT200=

USA.gov is the U.S. government's official web portal to all federal, state and local government web resources and services.